GSAT0204 (PRN E22)

Last updated on Jan. 22, 2021, 6:27 a.m. UTC

1 40545U 15017B   21021.31042303 -.00000063  00000-0  00000-0 0  9994
2 40545  56.5598  35.4247 0003337 245.2191 114.7867  1.70475303 36231
UTC
Height (km)
Latitude
Longitude
Inclination
Orbital Period
UTC large
Height (km)
Speed (km/s)
/
Latitude / Longitude
Inclination (degrees)
Orbital Period (minutes)
Azimuth
Elevation
Range (km)
Doppler Factor
iOS Compass Heading
iOS Angle

Next 30 passes for location: Hong Kong

Rise time Rise Azimuth (degrees) Set time Set Azimuth (degrees) Duration Max altitude (degrees)

No matching passes for this satellites